Time,TemperatureF,DewpointF,PressureIn,WindDirection,WindDirectionDegrees,WindSpeedMPH,WindSpeedGustMPH,Humidity,HourlyPrecipIn,Conditions,Clouds,dailyrainin,SoftwareType,DateUTC
2013-10-13 00:01:00,59.0,55.8,30.11,SSE,156,0.0,1.0,89,0.00,,---,0.01,VWS V14.00,2013-10-13 04:01:00,
2013-10-13 00:06:00,59.0,55.8,30.11,SSE,156,0.0,1.0,89,0.00,,---,0.01,VWS V14.00,2013-10-13 04:06:00,
2013-10-13 00:11:00,59.0,55.5,30.10,SSE,156,0.0,0.0,88,0.00,,---,0.00,VWS V14.00,2013-10-13 04:11:00,
2013-10-13 00:16:00,59.0,55.5,30.10,SSE,156,0.0,0.0,88,0.00,,---,0.00,VWS V14.00,2013-10-13 04:16:00,
2013-10-13 00:21:00,59.0,55.8,30.09,SSE,156,0.0,0.0,89,0.00,,---,0.00,VWS V14.00,2013-10-13 04:21:00,
2013-10-13 00:26:00,59.0,55.8,30.09,SSE,156,0.0,0.0,89,0.00,,---,0.00,VWS V14.00,2013-10-13 04:26:00,
2013-10-13 00:31:00,59.0,55.8,30.10,SSE,156,0.0,0.0,89,0.00,,---,0.00,VWS V14.00,2013-10-13 04:31:00,
2013-10-13 00:36:00,59.0,55.5,30.10,SSE,156,0.0,0.0,88,0.00,,---,0.00,VWS V14.00,2013-10-13 04:36:00,
2013-10-13 00:41:00,59.0,55.5,30.09,SSE,156,0.0,0.0,88,0.00,,---,0.00,VWS V14.00,2013-10-13 04:41:00,
2013-10-13 00:46:00,59.0,55.5,30.09,SSE,156,0.0,0.0,88,0.00,,---,0.00,VWS V14.00,2013-10-13 04:46:00,
2013-10-13 00:51:00,59.0,55.5,30.10,SSE,156,0.0,0.0,88,0.00,,---,0.00,VWS V14.00,2013-10-13 04:51:00,
2013-10-13 00:56:00,59.0,55.5,30.10,SSE,156,0.0,0.0,88,0.00,,---,0.00,VWS V14.00,2013-10-13 04:56:00,
2013-10-13 01:01:00,59.0,55.5,30.10,SSE,156,0.0,0.0,88,0.00,,---,0.00,VWS V14.00,2013-10-13 05:01:00,
2013-10-13 01:06:00,58.9,55.7,30.10,SSE,156,0.0,0.0,89,0.00,,---,0.00,VWS V14.00,2013-10-13 05:06:00,
2013-10-13 01:11:00,58.7,55.5,30.09,SSE,156,0.0,0.0,89,0.00,,---,0.00,VWS V14.00,2013-10-13 05:11:00,
2013-10-13 01:16:00,58.6,55.4,30.09,SSE,156,0.0,0.0,89,0.00,,---,0.00,VWS V14.00,2013-10-13 05:16:00,
2013-10-13 01:21:00,58.4,55.2,30.09,SSE,156,0.0,0.0,89,0.00,,---,0.00,VWS V14.00,2013-10-13 05:21:00,
2013-10-13 01:26:00,58.3,56.0,30.10,SSE,156,0.0,0.0,92,0.00,,---,0.00,VWS V14.00,2013-10-13 05:26:00,
2013-10-13 01:31:00,58.2,55.3,30.10,SSE,156,0.0,0.0,90,0.00,,---,0.00,VWS V14.00,2013-10-13 05:31:00,
2013-10-13 01:36:00,58.0,55.1,30.10,SSE,156,0.0,0.0,90,0.00,,---,0.00,VWS V14.00,2013-10-13 05:36:00,
2013-10-13 01:41:00,57.8,54.9,30.10,SSE,156,0.0,0.0,90,0.00,,---,0.00,VWS V14.00,2013-10-13 05:41:00,
2013-10-13 01:46:00,57.6,54.7,30.10,SSE,156,0.0,0.0,90,0.00,,---,0.00,VWS V14.00,2013-10-13 05:46:00,
2013-10-13 01:51:00,57.4,54.8,30.10,SSE,156,0.0,0.0,91,0.00,,---,0.00,VWS V14.00,2013-10-13 05:51:00,
2013-10-13 01:56:00,57.2,54.6,30.10,SSE,156,0.0,0.0,91,0.00,,---,0.00,VWS V14.00,2013-10-13 05:56:00,
2013-10-13 02:01:00,57.0,54.7,30.10,SSE,156,0.0,0.0,92,0.00,,---,0.00,VWS V14.00,2013-10-13 06:01:00,
2013-10-13 02:06:00,56.9,54.6,30.10,SSE,156,0.0,0.0,92,0.00,,---,0.00,VWS V14.00,2013-10-13 06:06:00,
2013-10-13 02:11:00,56.9,54.9,30.11,SSE,156,0.0,0.0,93,0.00,,---,0.00,VWS V14.00,2013-10-13 06:11:00,
2013-10-13 02:16:00,56.9,54.9,30.11,SSE,156,0.0,0.0,93,0.00,,---,0.00,VWS V14.00,2013-10-13 06:16:00,
2013-10-13 02:21:00,56.8,54.8,30.11,SSE,156,0.0,1.0,93,0.00,,---,0.00,VWS V14.00,2013-10-13 06:21:00,
2013-10-13 02:26:00,56.9,55.2,30.11,SSE,156,0.0,1.0,94,0.00,,---,0.00,VWS V14.00,2013-10-13 06:26:00,
2013-10-13 02:31:00,56.9,55.2,30.12,SSE,156,0.0,1.0,94,0.00,,---,0.00,VWS V14.00,2013-10-13 06:31:00,
2013-10-13 02:36:00,56.9,55.2,30.12,SSE,156,0.0,1.0,94,0.00,,---,0.00,VWS V14.00,2013-10-13 06:36:00,
2013-10-13 02:41:00,56.9,55.2,30.12,SSE,156,0.0,0.0,94,0.00,,---,0.00,VWS V14.00,2013-10-13 06:41:00,
2013-10-13 02:46:00,56.9,55.2,30.12,SSE,156,0.0,0.0,94,0.00,,---,0.00,VWS V14.00,2013-10-13 06:46:00,
2013-10-13 02:51:00,56.9,55.2,30.12,SSE,156,0.0,0.0,94,0.00,,---,0.00,VWS V14.00,2013-10-13 06:51:00,
2013-10-13 02:56:00,56.9,55.2,30.12,SSE,156,0.0,0.0,94,0.00,,---,0.00,VWS V14.00,2013-10-13 06:56:00,
2013-10-13 03:01:00,56.9,55.2,30.12,SSE,156,0.0,0.0,94,0.00,,---,0.00,VWS V14.00,2013-10-13 07:01:00,
2013-10-13 03:06:00,56.9,55.2,30.12,SSE,156,0.0,0.0,94,0.00,,---,0.00,VWS V14.00,2013-10-13 07:06:00,
2013-10-13 03:11:00,56.9,55.2,30.12,SSE,156,0.0,0.0,94,0.00,,---,0.00,VWS V14.00,2013-10-13 07:11:00,
2013-10-13 03:16:00,56.9,55.2,30.12,SSE,156,0.0,0.0,94,0.00,,---,0.00,VWS V14.00,2013-10-13 07:16:00,
2013-10-13 03:21:00,57.0,55.3,30.12,SSE,156,0.0,0.0,94,0.00,,---,0.00,VWS V14.00,2013-10-13 07:21:00,
2013-10-13 03:26:00,57.0,55.3,30.12,SSE,156,0.0,0.0,94,0.00,,---,0.00,VWS V14.00,2013-10-13 07:26:00,
2013-10-13 03:31:00,57.1,55.4,30.12,SSE,156,0.0,0.0,94,0.00,,---,0.00,VWS V14.00,2013-10-13 07:31:00,
2013-10-13 03:36:00,57.1,55.4,30.12,SSE,156,0.0,0.0,94,0.00,,---,0.00,VWS V14.00,2013-10-13 07:36:00,
2013-10-13 03:41:00,57.1,55.4,30.12,SSE,156,0.0,0.0,94,0.00,,---,0.00,VWS V14.00,2013-10-13 07:41:00,
2013-10-13 03:46:00,57.1,55.4,30.12,SSE,156,0.0,0.0,94,0.00,,---,0.00,VWS V14.00,2013-10-13 07:46:00,
2013-10-13 03:51:00,57.1,55.4,30.12,SSE,156,0.0,0.0,94,0.00,,---,0.00,VWS V14.00,2013-10-13 07:51:00,
2013-10-13 03:56:00,57.1,55.4,30.12,SSE,156,0.0,0.0,94,0.00,,---,0.00,VWS V14.00,2013-10-13 07:56:00,
2013-10-13 04:01:00,57.2,55.5,30.12,SSE,156,0.0,0.0,94,0.00,,---,0.00,VWS V14.00,2013-10-13 08:01:00,
2013-10-13 04:06:00,57.2,55.5,30.12,SSE,156,0.0,0.0,94,0.00,,---,0.00,VWS V14.00,2013-10-13 08:06:00,
2013-10-13 04:11:00,57.2,55.5,30.12,SSE,156,0.0,0.0,94,0.00,,---,0.00,VWS V14.00,2013-10-13 08:11:00,
2013-10-13 04:16:00,57.2,55.5,30.12,SSE,156,0.0,0.0,94,0.00,,---,0.00,VWS V14.00,2013-10-13 08:16:00,
2013-10-13 04:21:00,57.2,55.5,30.11,SSE,156,0.0,0.0,94,0.00,,---,0.00,VWS V14.00,2013-10-13 08:21:00,
2013-10-13 04:26:00,57.3,55.6,30.11,SSE,156,0.0,0.0,94,0.00,,---,0.00,VWS V14.00,2013-10-13 08:26:00,
2013-10-13 04:31:00,57.2,55.5,30.11,SSE,156,0.0,0.0,94,0.00,,---,0.00,VWS V14.00,2013-10-13 08:31:00,
2013-10-13 04:36:00,57.2,55.5,30.11,SSE,156,0.0,0.0,94,0.00,,---,0.00,VWS V14.00,2013-10-13 08:36:00,
2013-10-13 04:41:00,57.3,55.6,30.11,SSE,156,0.0,0.0,94,0.00,,---,0.00,VWS V14.00,2013-10-13 08:41:00,
2013-10-13 04:46:00,57.3,55.6,30.11,SSE,156,0.0,0.0,94,0.00,,---,0.00,VWS V14.00,2013-10-13 08:46:00,
2013-10-13 04:51:00,57.3,55.6,30.12,SSE,156,0.0,0.0,94,0.00,,---,0.00,VWS V14.00,2013-10-13 08:51:00,
2013-10-13 04:56:00,57.4,55.7,30.11,SSE,156,0.0,0.0,94,0.00,,---,0.00,VWS V14.00,2013-10-13 08:56:00,
2013-10-13 05:01:00,57.4,55.7,30.11,SSE,156,0.0,0.0,94,0.00,,---,0.00,VWS V14.00,2013-10-13 09:01:00,
2013-10-13 05:06:00,57.4,55.7,30.12,SSE,156,0.0,0.0,94,0.00,,---,0.00,VWS V14.00,2013-10-13 09:06:00,
2013-10-13 05:11:00,57.5,55.8,30.13,SSE,156,0.0,0.0,94,0.00,,---,0.00,VWS V14.00,2013-10-13 09:11:00,
2013-10-13 05:16:00,57.5,55.8,30.12,SSE,156,0.0,0.0,94,0.00,,---,0.00,VWS V14.00,2013-10-13 09:16:00,
2013-10-13 05:21:00,57.5,56.1,30.12,SSE,156,0.0,0.0,95,0.00,,---,0.00,VWS V14.00,2013-10-13 09:21:00,
2013-10-13 05:26:00,57.5,56.1,30.12,SSE,156,0.0,0.0,95,0.00,,---,0.00,VWS V14.00,2013-10-13 09:26:00,
2013-10-13 05:31:00,57.5,56.1,30.12,SSE,156,0.0,0.0,95,0.00,,---,0.00,VWS V14.00,2013-10-13 09:31:00,
2013-10-13 05:36:00,57.6,56.2,30.12,SSE,156,0.0,0.0,95,0.00,,---,0.00,VWS V14.00,2013-10-13 09:36:00,
2013-10-13 05:41:00,57.6,56.2,30.12,SSE,156,0.0,0.0,95,0.00,,---,0.00,VWS V14.00,2013-10-13 09:41:00,
2013-10-13 05:46:00,57.6,56.2,30.12,SSE,156,0.0,0.0,95,0.00,,---,0.00,VWS V14.00,2013-10-13 09:46:00,
2013-10-13 05:51:00,57.6,56.2,30.13,SSE,156,0.0,0.0,95,0.00,,---,0.00,VWS V14.00,2013-10-13 09:51:00,
2013-10-13 05:56:00,57.7,56.3,30.13,SSE,156,0.0,0.0,95,0.00,,---,0.00,VWS V14.00,2013-10-13 09:56:00,
2013-10-13 06:01:00,57.7,56.3,30.13,SSE,156,0.0,0.0,95,0.00,,---,0.00,VWS V14.00,2013-10-13 10:01:00,
2013-10-13 06:06:00,57.7,56.3,30.13,SSE,156,0.0,0.0,95,0.00,,---,0.00,VWS V14.00,2013-10-13 10:06:00,
2013-10-13 06:11:00,57.7,56.3,30.14,SSE,156,0.0,0.0,95,0.00,,---,0.00,VWS V14.00,2013-10-13 10:11:00,
2013-10-13 06:16:00,57.8,56.4,30.15,SSE,156,0.0,0.0,95,0.00,,---,0.00,VWS V14.00,2013-10-13 10:16:00,
2013-10-13 06:21:00,57.8,56.4,30.15,SSE,156,0.0,0.0,95,0.00,,---,0.00,VWS V14.00,2013-10-13 10:21:00,
2013-10-13 06:26:00,57.8,56.4,30.15,SSE,156,0.0,0.0,95,0.00,,---,0.00,VWS V14.00,2013-10-13 10:26:00,
2013-10-13 06:31:00,57.8,56.4,30.15,SSE,156,0.0,0.0,95,0.00,,---,0.00,VWS V14.00,2013-10-13 10:31:00,
2013-10-13 06:36:00,57.9,56.5,30.15,SSE,156,0.0,0.0,95,0.00,,---,0.00,VWS V14.00,2013-10-13 10:36:00,
2013-10-13 06:41:00,57.9,56.5,30.15,SSE,156,0.0,0.0,95,0.00,,---,0.00,VWS V14.00,2013-10-13 10:41:00,
2013-10-13 06:46:00,57.9,56.5,30.15,SSE,156,0.0,0.0,95,0.00,,---,0.00,VWS V14.00,2013-10-13 10:46:00,
2013-10-13 06:51:00,57.9,56.5,30.15,SSE,156,0.0,0.0,95,0.00,,---,0.00,VWS V14.00,2013-10-13 10:51:00,
2013-10-13 06:56:00,57.9,56.5,30.15,SSE,156,0.0,0.0,95,0.00,,---,0.00,VWS V14.00,2013-10-13 10:56:00,
2013-10-13 07:01:00,57.9,56.5,30.15,SSE,156,0.0,0.0,95,0.00,,---,0.00,VWS V14.00,2013-10-13 11:01:00,
2013-10-13 07:06:00,57.9,56.5,30.15,SSE,156,0.0,0.0,95,0.00,,---,0.00,VWS V14.00,2013-10-13 11:06:00,
2013-10-13 07:11:00,58.0,56.6,30.16,SSE,156,0.0,0.0,95,0.00,,---,0.00,VWS V14.00,2013-10-13 11:11:00,
2013-10-13 07:16:00,58.0,56.6,30.16,SSE,156,0.0,0.0,95,0.00,,---,0.00,VWS V14.00,2013-10-13 11:16:00,
2013-10-13 07:21:00,58.1,56.7,30.16,SSE,156,0.0,0.0,95,0.00,,---,0.00,VWS V14.00,2013-10-13 11:21:00,
2013-10-13 07:26:00,58.1,56.7,30.16,SSE,156,0.0,0.0,95,0.00,,---,0.00,VWS V14.00,2013-10-13 11:26:00,
2013-10-13 07:31:00,58.1,56.7,30.16,SSE,156,0.0,0.0,95,0.00,,---,0.00,VWS V14.00,2013-10-13 11:31:00,
2013-10-13 07:36:00,58.1,56.7,30.16,SSE,156,0.0,0.0,95,0.00,,---,0.00,VWS V14.00,2013-10-13 11:36:00,
2013-10-13 07:41:00,58.1,56.7,30.16,SSE,156,0.0,0.0,95,0.00,,---,0.00,VWS V14.00,2013-10-13 11:41:00,
2013-10-13 07:46:00,58.1,56.7,30.16,SSE,156,0.0,0.0,95,0.00,,---,0.00,VWS V14.00,2013-10-13 11:46:00,
2013-10-13 07:51:00,58.0,56.6,30.17,SSE,156,0.0,0.0,95,0.00,,---,0.00,VWS V14.00,2013-10-13 11:51:00,
2013-10-13 07:56:00,58.0,56.6,30.17,SSE,156,0.0,0.0,95,0.00,,---,0.00,VWS V14.00,2013-10-13 11:56:00,
2013-10-13 08:01:00,58.0,56.6,30.17,SSE,156,0.0,0.0,95,0.00,,---,0.00,VWS V14.00,2013-10-13 12:01:00,
2013-10-13 08:06:00,58.0,56.6,30.17,SSE,156,0.0,0.0,95,0.00,,---,0.00,VWS V14.00,2013-10-13 12:06:00,
2013-10-13 08:11:00,58.0,56.6,30.18,SSE,156,0.0,0.0,95,0.00,,---,0.00,VWS V14.00,2013-10-13 12:11:00,
2013-10-13 08:16:00,58.0,56.6,30.18,SSE,156,0.0,0.0,95,0.00,,---,0.00,VWS V14.00,2013-10-13 12:16:00,
2013-10-13 08:21:00,58.0,56.6,30.18,SSE,156,0.0,0.0,95,0.00,,---,0.00,VWS V14.00,2013-10-13 12:21:00,
2013-10-13 08:26:00,58.0,56.6,30.18,SE,142,0.0,0.0,95,0.00,,---,0.00,VWS V14.00,2013-10-13 12:26:00,
2013-10-13 08:31:00,58.0,56.6,30.18,SE,143,0.0,0.0,95,0.00,,---,0.00,VWS V14.00,2013-10-13 12:31:00,
2013-10-13 08:36:00,58.0,56.6,30.18,SE,142,0.0,0.0,95,0.00,,---,0.00,VWS V14.00,2013-10-13 12:36:00,
2013-10-13 08:41:00,58.0,56.6,30.18,WSW,239,0.0,0.0,95,0.00,,---,0.00,VWS V14.00,2013-10-13 12:41:00,
2013-10-13 08:46:00,58.0,56.6,30.19,WSW,238,0.0,1.0,95,0.00,,---,0.00,VWS V14.00,2013-10-13 12:46:00,
2013-10-13 08:51:00,57.9,56.5,30.19,WSW,254,0.0,2.0,95,0.00,,---,0.00,VWS V14.00,2013-10-13 12:51:00,
2013-10-13 08:56:00,57.9,56.5,30.19,WSW,253,0.0,2.0,95,0.00,,---,0.00,VWS V14.00,2013-10-13 12:56:00,
2013-10-13 09:01:00,57.9,56.5,30.20,SSW,210,0.0,2.0,95,0.00,,---,0.00,VWS V14.00,2013-10-13 13:01:00,
2013-10-13 09:06:00,57.9,56.8,30.20,WSW,248,0.0,2.0,96,0.00,,---,0.00,VWS V14.00,2013-10-13 13:06:00,
2013-10-13 09:11:00,58.0,56.9,30.20,WSW,248,0.0,0.0,96,0.00,,---,0.00,VWS V14.00,2013-10-13 13:11:00,
2013-10-13 09:16:00,58.0,56.9,30.19,WSW,248,0.0,0.0,96,0.00,,---,0.00,VWS V14.00,2013-10-13 13:16:00,
2013-10-13 09:21:00,58.0,56.9,30.20,WSW,248,0.0,0.0,96,0.00,,---,0.00,VWS V14.00,2013-10-13 13:21:00,
2013-10-13 09:26:00,58.0,56.9,30.20,WSW,248,0.0,0.0,96,0.00,,---,0.00,VWS V14.00,2013-10-13 13:26:00,
2013-10-13 09:31:00,58.0,56.9,30.20,WSW,248,0.0,0.0,96,0.00,,---,0.00,VWS V14.00,2013-10-13 13:31:00,
2013-10-13 09:36:00,58.0,56.9,30.20,WSW,248,0.0,0.0,96,0.00,,---,0.00,VWS V14.00,2013-10-13 13:36:00,
2013-10-13 09:41:00,58.1,57.0,30.20,WSW,248,0.0,0.0,96,0.00,,---,0.00,VWS V14.00,2013-10-13 13:41:00,
2013-10-13 09:46:00,58.1,57.0,30.20,WSW,248,0.0,0.0,96,0.00,,---,0.00,VWS V14.00,2013-10-13 13:46:00,
2013-10-13 09:51:00,58.2,57.1,30.21,WSW,248,0.0,0.0,96,0.00,,---,0.00,VWS V14.00,2013-10-13 13:51:00,
2013-10-13 09:56:00,58.3,57.2,30.21,WSW,248,0.0,0.0,96,0.00,,---,0.00,VWS V14.00,2013-10-13 13:56:00,
2013-10-13 10:01:00,58.3,57.2,30.21,WSW,248,0.0,0.0,96,0.00,,---,0.00,VWS V14.00,2013-10-13 14:01:00,
2013-10-13 10:06:00,58.4,57.3,30.21,WSW,248,0.0,0.0,96,0.00,,---,0.00,VWS V14.00,2013-10-13 14:06:00,
2013-10-13 10:11:00,58.5,57.4,30.21,WSW,248,0.0,0.0,96,0.00,,---,0.00,VWS V14.00,2013-10-13 14:11:00,
2013-10-13 10:16:00,58.7,57.6,30.21,SW,236,0.0,0.0,96,0.00,,---,0.00,VWS V14.00,2013-10-13 14:16:00,
2013-10-13 10:21:00,58.8,57.7,30.21,WSW,244,0.0,0.0,96,0.00,,---,0.00,VWS V14.00,2013-10-13 14:21:00,
2013-10-13 10:26:00,59.0,57.9,30.21,SSE,157,0.0,0.0,96,0.00,,---,0.00,VWS V14.00,2013-10-13 14:26:00,
2013-10-13 10:31:00,59.0,57.9,30.21,SW,233,0.0,0.0,96,0.00,,---,0.00,VWS V14.00,2013-10-13 14:31:00,
2013-10-13 10:36:00,59.0,57.9,30.21,SW,233,0.0,0.0,96,0.00,,---,0.00,VWS V14.00,2013-10-13 14:36:00,
2013-10-13 10:41:00,59.0,57.9,30.21,SW,234,0.0,0.0,96,0.00,,---,0.00,VWS V14.00,2013-10-13 14:41:00,
2013-10-13 10:46:00,59.0,57.9,30.21,SW,234,0.0,0.0,96,0.00,,---,0.00,VWS V14.00,2013-10-13 14:46:00,
2013-10-13 10:51:00,59.0,57.9,30.21,SW,234,0.0,0.0,96,0.00,,---,0.00,VWS V14.00,2013-10-13 14:51:00,
2013-10-13 10:56:00,59.1,57.7,30.21,SW,233,0.0,0.0,95,0.00,,---,0.00,VWS V14.00,2013-10-13 14:56:00,
2013-10-13 11:01:00,59.4,58.0,30.22,SW,234,0.0,1.0,95,0.00,,---,0.00,VWS V14.00,2013-10-13 15:01:00,
2013-10-13 11:06:00,59.5,58.1,30.22,SW,234,0.0,1.0,95,0.00,,---,0.00,VWS V14.00,2013-10-13 15:06:00,
2013-10-13 11:11:00,59.6,58.2,30.22,SW,233,0.0,0.0,95,0.00,,---,0.00,VWS V14.00,2013-10-13 15:11:00,
2013-10-13 11:16:00,59.8,58.4,30.22,SW,233,0.0,0.0,95,0.00,,---,0.00,VWS V14.00,2013-10-13 15:16:00,
2013-10-13 11:21:00,59.9,58.5,30.22,SW,234,0.0,0.0,95,0.00,,---,0.00,VWS V14.00,2013-10-13 15:21:00,
2013-10-13 11:26:00,60.0,58.6,30.22,SW,233,0.0,0.0,95,0.00,,---,0.00,VWS V14.00,2013-10-13 15:26:00,
2013-10-13 11:31:00,60.1,58.7,30.22,SW,234,0.0,0.0,95,0.00,,---,0.00,VWS V14.00,2013-10-13 15:31:00,
2013-10-13 11:36:00,60.2,58.8,30.22,SW,234,0.0,0.0,95,0.00,,---,0.00,VWS V14.00,2013-10-13 15:36:00,
2013-10-13 11:41:00,60.5,59.1,30.22,SW,234,0.0,0.0,95,0.00,,---,0.00,VWS V14.00,2013-10-13 15:41:00,
2013-10-13 11:46:00,60.8,59.4,30.22,SW,233,0.0,0.0,95,0.00,,---,0.00,VWS V14.00,2013-10-13 15:46:00,
2013-10-13 11:51:00,61.1,59.7,30.21,SW,234,0.0,0.0,95,0.00,,---,0.00,VWS V14.00,2013-10-13 15:51:00,
2013-10-13 11:56:00,61.3,59.6,30.21,SW,234,0.0,0.0,94,0.00,,---,0.00,VWS V14.00,2013-10-13 15:56:00,
2013-10-13 12:01:00,61.6,60.2,30.21,SW,234,0.0,0.0,95,0.00,,---,0.00,VWS V14.00,2013-10-13 16:01:00,
2013-10-13 12:06:00,61.8,60.1,30.21,SW,234,0.0,0.0,94,0.00,,---,0.00,VWS V14.00,2013-10-13 16:06:00,
2013-10-13 12:11:00,62.0,60.3,30.21,SW,233,0.0,0.0,94,0.00,,---,0.00,VWS V14.00,2013-10-13 16:11:00,
2013-10-13 12:16:00,62.1,60.4,30.21,SW,234,0.0,0.0,94,0.00,,---,0.00,VWS V14.00,2013-10-13 16:16:00,
2013-10-13 12:21:00,62.3,60.6,30.21,SW,234,0.0,0.0,94,0.00,,---,0.00,VWS V14.00,2013-10-13 16:21:00,
2013-10-13 12:26:00,62.5,60.8,30.21,SSW,202,0.0,0.0,94,0.00,,---,0.00,VWS V14.00,2013-10-13 16:26:00,
2013-10-13 12:31:00,62.6,60.5,30.21,SSW,202,0.0,0.0,93,0.00,,---,0.00,VWS V14.00,2013-10-13 16:31:00,
2013-10-13 12:36:00,62.9,60.5,30.21,SSW,202,0.0,1.0,92,0.00,,---,0.00,VWS V14.00,2013-10-13 16:36:00,
2013-10-13 12:41:00,63.0,60.6,30.21,SSW,202,0.0,0.0,92,0.00,,---,0.00,VWS V14.00,2013-10-13 16:41:00,
2013-10-13 12:46:00,63.1,60.1,30.20,SSW,202,0.0,0.0,90,0.00,,---,0.00,VWS V14.00,2013-10-13 16:46:00,
2013-10-13 12:51:00,63.4,60.4,30.20,SSW,202,0.0,1.0,90,0.00,,---,0.00,VWS V14.00,2013-10-13 16:51:00,
2013-10-13 12:56:00,63.8,61.1,30.20,SSW,202,0.0,1.0,91,0.00,,---,0.00,VWS V14.00,2013-10-13 16:56:00,
2013-10-13 13:01:00,64.6,61.9,30.19,SSW,202,0.0,1.0,91,0.00,,---,0.00,VWS V14.00,2013-10-13 17:01:00,
2013-10-13 13:06:00,65.2,62.5,30.19,WSW,250,0.0,1.0,91,0.00,,---,0.00,VWS V14.00,2013-10-13 17:06:00,
2013-10-13 13:11:00,65.6,61.6,30.19,SW,215,0.0,1.0,87,0.00,,---,0.00,VWS V14.00,2013-10-13 17:11:00,
2013-10-13 13:16:00,66.2,62.9,30.19,SW,216,0.0,1.0,89,0.00,,---,0.00,VWS V14.00,2013-10-13 17:16:00,
2013-10-13 13:21:00,66.8,62.2,30.18,SSE,147,2.0,4.0,85,0.00,,---,0.00,VWS V14.00,2013-10-13 17:21:00,
2013-10-13 13:26:00,67.6,61.6,30.18,SE,132,3.0,9.0,81,0.00,,---,0.00,VWS V14.00,2013-10-13 17:26:00,
2013-10-13 13:31:00,68.2,61.5,30.18,SSE,157,1.0,9.0,79,0.00,,---,0.00,VWS V14.00,2013-10-13 17:31:00,
2013-10-13 13:36:00,68.9,62.5,30.17,SSE,153,3.0,9.0,80,0.00,,---,0.00,VWS V14.00,2013-10-13 17:36:00,
2013-10-13 13:41:00,69.3,61.4,30.17,ESE,111,4.0,4.0,76,0.00,,---,0.00,VWS V14.00,2013-10-13 17:41:00,
2013-10-13 13:46:00,69.5,61.2,30.17,SSE,166,0.0,4.0,75,0.00,,---,0.00,VWS V14.00,2013-10-13 17:46:00,
2013-10-13 13:51:00,69.5,61.6,30.17,SW,234,0.0,4.0,76,0.00,,---,0.00,VWS V14.00,2013-10-13 17:51:00,
2013-10-13 13:56:00,69.4,61.5,30.17,ESE,121,0.0,4.0,76,0.00,,---,0.00,VWS V14.00,2013-10-13 17:56:00,
2013-10-13 14:01:00,69.1,60.8,30.17,SSE,164,1.0,7.0,75,0.00,,---,0.00,VWS V14.00,2013-10-13 18:01:00,
2013-10-13 14:06:00,68.8,60.9,30.17,SSE,161,1.0,7.0,76,0.00,,---,0.00,VWS V14.00,2013-10-13 18:06:00,
2013-10-13 14:11:00,68.6,60.7,30.16,SE,144,0.0,6.0,76,0.00,,---,0.00,VWS V14.00,2013-10-13 18:11:00,
2013-10-13 14:16:00,68.6,61.1,30.16,SSE,157,0.0,6.0,77,0.00,,---,0.00,VWS V14.00,2013-10-13 18:16:00,
2013-10-13 14:21:00,68.6,61.1,30.16,SSE,159,0.0,6.0,77,0.00,,---,0.00,VWS V14.00,2013-10-13 18:21:00,
2013-10-13 14:26:00,68.6,60.4,30.16,SSE,148,0.0,6.0,75,0.00,,---,0.00,VWS V14.00,2013-10-13 18:26:00,
2013-10-13 14:31:00,68.6,60.0,30.16,SE,144,1.0,6.0,74,0.00,,---,0.00,VWS V14.00,2013-10-13 18:31:00,
2013-10-13 14:36:00,68.6,60.7,30.16,SSE,167,3.0,6.0,76,0.00,,---,0.00,VWS V14.00,2013-10-13 18:36:00,
2013-10-13 14:41:00,68.4,60.2,30.17,SSE,162,2.0,6.0,75,0.00,,---,0.00,VWS V14.00,2013-10-13 18:41:00,
2013-10-13 14:46:00,68.4,60.9,30.16,SE,128,3.0,6.0,77,0.00,,---,0.00,VWS V14.00,2013-10-13 18:46:00,
2013-10-13 14:51:00,68.5,61.0,30.15,SE,137,0.0,6.0,77,0.00,,---,0.00,VWS V14.00,2013-10-13 18:51:00,
2013-10-13 14:56:00,68.8,61.3,30.15,SSE,166,0.0,6.0,77,0.00,,---,0.00,VWS V14.00,2013-10-13 18:56:00,
2013-10-13 15:01:00,69.3,61.8,30.15,SE,127,0.0,6.0,77,0.00,,---,0.00,VWS V14.00,2013-10-13 19:01:00,
2013-10-13 15:06:00,70.0,62.8,30.15,East,98,0.0,6.0,78,0.00,,---,0.00,VWS V14.00,2013-10-13 19:06:00,
2013-10-13 15:11:00,70.9,63.0,30.14,South,177,10.0,10.0,76,0.00,,---,0.00,VWS V14.00,2013-10-13 19:11:00,
2013-10-13 15:16:00,71.0,61.9,30.14,SSE,164,1.0,10.0,73,0.00,,---,0.00,VWS V14.00,2013-10-13 19:16:00,
2013-10-13 15:21:00,71.0,61.5,30.14,SSE,157,0.0,10.0,72,0.00,,---,0.00,VWS V14.00,2013-10-13 19:21:00,
2013-10-13 15:26:00,70.6,61.5,30.14,ENE,75,0.0,10.0,73,0.00,,---,0.00,VWS V14.00,2013-10-13 19:26:00,
2013-10-13 15:31:00,70.8,62.9,30.14,SSE,164,0.0,10.0,76,0.00,,---,0.00,VWS V14.00,2013-10-13 19:31:00,
2013-10-13 15:36:00,71.5,63.2,30.14,SSE,148,2.0,10.0,75,0.00,,---,0.00,VWS V14.00,2013-10-13 19:36:00,
2013-10-13 15:41:00,72.1,63.8,30.14,East,80,0.0,3.0,75,0.00,,---,0.00,VWS V14.00,2013-10-13 19:41:00,
2013-10-13 15:46:00,72.3,63.9,30.14,East,94,0.0,3.0,75,0.00,,---,0.00,VWS V14.00,2013-10-13 19:46:00,
2013-10-13 15:51:00,72.2,63.1,30.14,ESE,111,0.0,3.0,73,0.00,,---,0.00,VWS V14.00,2013-10-13 19:51:00,
2013-10-13 15:56:00,72.0,62.5,30.14,ESE,119,0.0,4.0,72,0.00,,---,0.00,VWS V14.00,2013-10-13 19:56:00,
2013-10-13 16:01:00,71.7,63.0,30.14,SE,138,1.0,5.0,74,0.00,,---,0.00,VWS V14.00,2013-10-13 20:01:00,
2013-10-13 16:06:00,71.3,62.2,30.14,SE,140,0.0,5.0,73,0.00,,---,0.00,VWS V14.00,2013-10-13 20:06:00,
2013-10-13 16:11:00,71.0,62.3,30.14,SE,140,0.0,2.0,74,0.00,,---,0.00,VWS V14.00,2013-10-13 20:11:00,
2013-10-13 16:16:00,70.5,62.6,30.14,SE,140,0.0,2.0,76,0.00,,---,0.00,VWS V14.00,2013-10-13 20:16:00,
2013-10-13 16:21:00,70.3,61.6,30.14,SE,140,0.0,2.0,74,0.00,,---,0.00,VWS V14.00,2013-10-13 20:21:00,
2013-10-13 16:26:00,70.2,62.3,30.14,SE,140,0.0,2.0,76,0.00,,---,0.00,VWS V14.00,2013-10-13 20:26:00,
2013-10-13 16:31:00,70.1,62.9,30.15,SE,140,0.0,2.0,78,0.00,,---,0.00,VWS V14.00,2013-10-13 20:31:00,
2013-10-13 16:36:00,70.0,63.2,30.15,SE,140,0.0,2.0,79,0.00,,---,0.00,VWS V14.00,2013-10-13 20:36:00,
2013-10-13 16:41:00,69.8,63.4,30.15,SE,140,0.0,0.0,80,0.00,,---,0.00,VWS V14.00,2013-10-13 20:41:00,
2013-10-13 16:46:00,69.5,62.3,30.15,SE,140,0.0,1.0,78,0.00,,---,0.00,VWS V14.00,2013-10-13 20:46:00,
2013-10-13 16:51:00,69.3,61.8,30.14,South,176,0.0,3.0,77,0.00,,---,0.00,VWS V14.00,2013-10-13 20:51:00,
2013-10-13 16:56:00,69.2,63.1,30.15,South,176,0.0,3.0,81,0.00,,---,0.00,VWS V14.00,2013-10-13 20:56:00,
2013-10-13 17:01:00,69.0,61.9,30.15,SE,133,0.0,3.0,78,0.00,,---,0.00,VWS V14.00,2013-10-13 21:01:00,
2013-10-13 17:06:00,68.8,62.0,30.14,SE,134,0.0,3.0,79,0.00,,---,0.00,VWS V14.00,2013-10-13 21:06:00,
2013-10-13 17:11:00,68.6,62.2,30.15,SE,134,0.0,0.0,80,0.00,,---,0.00,VWS V14.00,2013-10-13 21:11:00,
2013-10-13 17:16:00,68.4,62.0,30.15,SE,136,0.0,1.0,80,0.00,,---,0.00,VWS V14.00,2013-10-13 21:16:00,
2013-10-13 17:21:00,68.1,61.7,30.15,SE,136,0.0,1.0,80,0.00,,---,0.00,VWS V14.00,2013-10-13 21:21:00,
2013-10-13 17:26:00,67.9,61.9,30.15,SE,137,0.0,2.0,81,0.00,,---,0.00,VWS V14.00,2013-10-13 21:26:00,
2013-10-13 17:31:00,67.9,61.9,30.15,SE,136,0.0,2.0,81,0.00,,---,0.00,VWS V14.00,2013-10-13 21:31:00,
2013-10-13 17:36:00,67.7,61.3,30.15,ESE,122,0.0,2.0,80,0.00,,---,0.00,VWS V14.00,2013-10-13 21:36:00,
2013-10-13 17:41:00,67.5,61.5,30.15,SE,146,0.0,1.0,81,0.00,,---,0.00,VWS V14.00,2013-10-13 21:41:00,
2013-10-13 17:46:00,67.4,61.7,30.15,SE,146,0.0,1.0,82,0.00,,---,0.00,VWS V14.00,2013-10-13 21:46:00,
2013-10-13 17:51:00,67.2,61.5,30.15,SSE,147,0.0,1.0,82,0.00,,---,0.00,VWS V14.00,2013-10-13 21:51:00,
2013-10-13 17:56:00,67.1,61.1,30.16,SSE,147,0.0,1.0,81,0.00,,---,0.00,VWS V14.00,2013-10-13 21:56:00,
2013-10-13 18:01:00,66.9,60.9,30.16,SSE,147,0.0,2.0,81,0.00,,---,0.00,VWS V14.00,2013-10-13 22:01:00,
2013-10-13 18:06:00,66.8,60.8,30.16,SE,146,0.0,2.0,81,0.00,,---,0.00,VWS V14.00,2013-10-13 22:06:00,
2013-10-13 18:11:00,66.7,61.4,30.16,SSE,147,0.0,0.0,83,0.00,,---,0.00,VWS V14.00,2013-10-13 22:11:00,
2013-10-13 18:16:00,66.7,61.7,30.16,SSE,147,0.0,0.0,84,0.00,,---,0.00,VWS V14.00,2013-10-13 22:16:00,
2013-10-13 18:21:00,66.5,61.5,30.16,SE,146,0.0,0.0,84,0.00,,---,0.00,VWS V14.00,2013-10-13 22:21:00,
2013-10-13 18:26:00,66.2,61.2,30.16,SE,146,0.0,0.0,84,0.00,,---,0.00,VWS V14.00,2013-10-13 22:26:00,
2013-10-13 18:31:00,66.1,61.5,30.16,SSE,147,0.0,0.0,85,0.00,,---,0.00,VWS V14.00,2013-10-13 22:31:00,
2013-10-13 18:36:00,65.9,61.3,30.16,SSE,147,0.0,0.0,85,0.00,,---,0.00,VWS V14.00,2013-10-13 22:36:00,
2013-10-13 18:41:00,65.7,61.1,30.16,SSE,147,0.0,0.0,85,0.00,,---,0.00,VWS V14.00,2013-10-13 22:41:00,
2013-10-13 18:46:00,65.3,60.7,30.16,SW,229,0.0,4.0,85,0.00,,---,0.00,VWS V14.00,2013-10-13 22:46:00,
2013-10-13 18:51:00,65.0,60.0,30.17,South,181,0.0,6.0,84,0.00,,---,0.00,VWS V14.00,2013-10-13 22:51:00,
2013-10-13 18:56:00,64.9,60.0,30.17,South,180,0.0,6.0,84,0.00,,---,0.00,VWS V14.00,2013-10-13 22:56:00,
2013-10-13 19:01:00,64.7,59.8,30.17,South,182,0.0,6.0,84,0.00,,---,0.00,VWS V14.00,2013-10-13 23:01:00,
2013-10-13 19:06:00,64.6,60.0,30.17,South,182,0.0,6.0,85,0.00,,---,0.00,VWS V14.00,2013-10-13 23:06:00,
2013-10-13 19:11:00,64.5,59.9,30.17,South,174,0.0,3.0,85,0.00,,---,0.00,VWS V14.00,2013-10-13 23:11:00,
2013-10-13 19:16:00,64.4,59.8,30.17,South,179,0.0,3.0,85,0.00,,---,0.00,VWS V14.00,2013-10-13 23:16:00,
2013-10-13 19:21:00,64.3,59.7,30.17,South,176,0.0,3.0,85,0.00,,---,0.00,VWS V14.00,2013-10-13 23:21:00,
2013-10-13 19:26:00,64.3,59.7,30.17,South,177,0.0,3.0,85,0.00,,---,0.00,VWS V14.00,2013-10-13 23:26:00,
2013-10-13 19:31:00,64.2,59.6,30.17,SSW,207,0.0,4.0,85,0.00,,---,0.00,VWS V14.00,2013-10-13 23:31:00,
2013-10-13 19:36:00,64.2,59.6,30.18,SSW,207,0.0,4.0,85,0.00,,---,0.00,VWS V14.00,2013-10-13 23:36:00,
2013-10-13 19:41:00,64.2,59.9,30.18,SSW,205,0.0,0.0,86,0.00,,---,0.00,VWS V14.00,2013-10-13 23:41:00,
2013-10-13 19:46:00,64.1,59.8,30.18,WSW,242,0.0,4.0,86,0.00,,---,0.00,VWS V14.00,2013-10-13 23:46:00,
2013-10-13 19:51:00,64.1,59.8,30.18,WSW,242,0.0,4.0,86,0.00,,---,0.00,VWS V14.00,2013-10-13 23:51:00,
2013-10-13 19:56:00,64.0,59.7,30.18,NNW,338,0.0,4.0,86,0.00,,---,0.00,VWS V14.00,2013-10-13 23:56:00,
2013-10-13 20:01:00,64.0,59.7,30.18,NNW,342,0.0,4.0,86,0.00,,---,0.00,VWS V14.00,2013-10-14 00:01:00,
2013-10-13 20:06:00,64.0,60.1,30.18,NNW,342,0.0,4.0,87,0.00,,---,0.00,VWS V14.00,2013-10-14 00:06:00,
2013-10-13 20:11:00,63.9,60.0,30.18,NNW,342,0.0,0.0,87,0.00,,---,0.00,VWS V14.00,2013-10-14 00:11:00,
2013-10-13 20:16:00,63.8,60.2,30.19,NNW,342,0.0,1.0,88,0.00,,---,0.00,VWS V14.00,2013-10-14 00:16:00,
2013-10-13 20:21:00,63.5,59.9,30.19,NNW,338,0.0,4.0,88,0.00,,---,0.00,VWS V14.00,2013-10-14 00:21:00,
2013-10-13 20:26:00,63.3,60.3,30.19,NNW,338,0.0,4.0,90,0.00,,---,0.00,VWS V14.00,2013-10-14 00:26:00,
2013-10-13 20:31:00,63.0,60.0,30.19,NNW,344,0.0,5.0,90,0.00,,---,0.00,VWS V14.00,2013-10-14 00:31:00,
2013-10-13 20:36:00,62.8,60.1,30.19,NNW,344,0.0,5.0,91,0.00,,---,0.00,VWS V14.00,2013-10-14 00:36:00,
2013-10-13 20:41:00,62.5,59.8,30.19,NNW,344,1.0,4.0,91,0.00,,---,0.00,VWS V14.00,2013-10-14 00:41:00,
2013-10-13 20:46:00,62.3,59.6,30.20,WNW,295,0.0,5.0,91,0.00,,---,0.00,VWS V14.00,2013-10-14 00:46:00,
2013-10-13 20:51:00,62.2,59.8,30.19,WNW,298,0.0,5.0,92,0.00,,---,0.00,VWS V14.00,2013-10-14 00:51:00,
2013-10-13 20:56:00,62.1,59.8,30.20,WNW,300,0.0,5.0,92,0.00,,---,0.00,VWS V14.00,2013-10-14 00:56:00,
2013-10-13 21:01:00,62.0,60.0,30.20,WNW,299,0.0,5.0,93,0.00,,---,0.00,VWS V14.00,2013-10-14 01:01:00,
2013-10-13 21:06:00,62.0,60.0,30.20,WNW,300,0.0,5.0,93,0.00,,---,0.00,VWS V14.00,2013-10-14 01:06:00,
2013-10-13 21:11:00,61.9,59.9,30.20,WNW,298,0.0,1.0,93,0.00,,---,0.00,VWS V14.00,2013-10-14 01:11:00,
2013-10-13 21:16:00,61.7,59.7,30.20,WNW,298,0.0,1.0,93,0.00,,---,0.00,VWS V14.00,2013-10-14 01:16:00,
2013-10-13 21:21:00,61.6,59.6,30.20,WNW,298,0.0,1.0,93,0.00,,---,0.00,VWS V14.00,2013-10-14 01:21:00,
2013-10-13 21:26:00,61.5,59.5,30.20,WSW,242,0.0,2.0,93,0.00,,---,0.00,VWS V14.00,2013-10-14 01:26:00,
2013-10-13 21:31:00,61.4,59.7,30.20,WSW,242,0.0,2.0,94,0.00,,---,0.00,VWS V14.00,2013-10-14 01:31:00,
2013-10-13 21:36:00,61.4,59.7,30.20,WSW,243,0.0,2.0,94,0.00,,---,0.00,VWS V14.00,2013-10-14 01:36:00,
2013-10-13 21:41:00,61.3,59.6,30.20,WSW,242,0.0,0.0,94,0.00,,---,0.00,VWS V14.00,2013-10-14 01:41:00,
2013-10-13 21:46:00,61.2,59.5,30.21,WSW,242,0.0,0.0,94,0.00,,---,0.00,VWS V14.00,2013-10-14 01:46:00,
2013-10-13 21:51:00,61.2,59.5,30.21,WSW,243,0.0,0.0,94,0.00,,---,0.00,VWS V14.00,2013-10-14 01:51:00,
2013-10-13 21:56:00,61.2,59.5,30.21,WSW,243,0.0,0.0,94,0.00,,---,0.00,VWS V14.00,2013-10-14 01:56:00,
2013-10-13 22:01:00,61.1,59.4,30.21,WSW,243,0.0,1.0,94,0.00,,---,0.00,VWS V14.00,2013-10-14 02:01:00,
2013-10-13 22:06:00,61.0,59.3,30.21,WSW,242,0.0,1.0,94,0.00,,---,0.00,VWS V14.00,2013-10-14 02:06:00,
2013-10-13 22:11:00,60.9,59.2,30.21,WSW,242,1.0,3.0,94,0.00,,---,0.00,VWS V14.00,2013-10-14 02:11:00,
2013-10-13 22:16:00,60.8,59.1,30.21,WSW,243,0.0,3.0,94,0.00,,---,0.00,VWS V14.00,2013-10-14 02:16:00,
2013-10-13 22:21:00,60.7,59.0,30.21,WSW,243,0.0,3.0,94,0.00,,---,0.00,VWS V14.00,2013-10-14 02:21:00,
2013-10-13 22:26:00,60.6,58.9,30.21,WSW,243,0.0,3.0,94,0.00,,---,0.00,VWS V14.00,2013-10-14 02:26:00,
2013-10-13 22:31:00,60.5,58.8,30.21,WSW,243,0.0,3.0,94,0.00,,---,0.00,VWS V14.00,2013-10-14 02:31:00,
2013-10-13 22:36:00,60.5,58.5,30.21,WSW,242,0.0,3.0,93,0.00,,---,0.00,VWS V14.00,2013-10-14 02:36:00,
2013-10-13 22:41:00,60.4,58.4,30.21,WSW,242,0.0,0.0,93,0.00,,---,0.00,VWS V14.00,2013-10-14 02:41:00,
2013-10-13 22:46:00,60.4,58.4,30.21,WSW,243,0.0,0.0,93,0.00,,---,0.00,VWS V14.00,2013-10-14 02:46:00,
2013-10-13 22:51:00,60.3,58.3,30.20,WSW,242,0.0,0.0,93,0.00,,---,0.00,VWS V14.00,2013-10-14 02:51:00,
2013-10-13 22:56:00,60.3,58.3,30.20,WSW,242,0.0,1.0,93,0.00,,---,0.00,VWS V14.00,2013-10-14 02:56:00,
2013-10-13 23:01:00,60.2,58.2,30.21,WSW,242,0.0,1.0,93,0.00,,---,0.00,VWS V14.00,2013-10-14 03:01:00,
2013-10-13 23:06:00,60.2,58.2,30.21,WSW,243,0.0,1.0,93,0.00,,---,0.00,VWS V14.00,2013-10-14 03:06:00,
2013-10-13 23:11:00,60.2,58.2,30.20,WSW,242,0.0,0.0,93,0.00,,---,0.00,VWS V14.00,2013-10-14 03:11:00,
2013-10-13 23:16:00,60.2,58.2,30.20,WSW,242,0.0,0.0,93,0.00,,---,0.00,VWS V14.00,2013-10-14 03:16:00,
2013-10-13 23:21:00,60.2,58.2,30.20,WSW,243,0.0,1.0,93,0.00,,---,0.00,VWS V14.00,2013-10-14 03:21:00,
2013-10-13 23:26:00,60.1,58.1,30.20,WSW,243,0.0,1.0,93,0.00,,---,0.00,VWS V14.00,2013-10-14 03:26:00,
2013-10-13 23:31:00,60.2,58.5,30.20,WSW,257,0.0,2.0,94,0.00,,---,0.00,VWS V14.00,2013-10-14 03:31:00,
2013-10-13 23:36:00,60.2,58.5,30.20,WSW,257,0.0,2.0,94,0.00,,---,0.00,VWS V14.00,2013-10-14 03:36:00,
2013-10-13 23:41:00,60.1,58.4,30.20,WSW,257,0.0,0.0,94,0.00,,---,0.00,VWS V14.00,2013-10-14 03:41:00,
2013-10-13 23:46:00,60.1,58.4,30.20,WSW,257,0.0,0.0,94,0.00,,---,0.00,VWS V14.00,2013-10-14 03:46:00,
2013-10-13 23:51:00,60.1,58.1,30.20,WSW,257,0.0,0.0,93,0.00,,---,0.00,VWS V14.00,2013-10-14 03:51:00,
2013-10-13 23:56:00,60.0,58.0,30.20,WSW,257,0.0,0.0,93,0.00,,---,0.00,VWS V14.00,2013-10-14 03:56:00,